Voltar ao catálogo

USA 40 R/B DEB

AtivoHEO
NORAD 23353·DEBRIS·🇺🇸 United States

Lançado Aug 8, 1989 de Cape Canaveral Space Force Station

Loading…

Próximas Passagens (próximas 24 horas)

TLE

AtualizadoSource: Space-Track

Época: Sep 14, 2026, 13:01 UTC

1 23353U 89061Z   26257.54294060  .00003615  00000-0  27929-2 0  9998
2 23353  56.9635 307.2909 2821223 184.3091 172.7457  9.20700297 81039

Acompanhe USA 40 R/B DEB em tempo real com AllMySat

Download on the App Store